Regional Weather Roundup
Issued by NWS Goodland, KS

Home | Current Version | Previous Version | Graphics & Text | Print | Product List | Glossary Off
Versions: 1 2 3 4 5 6 7 8 9 10 11 12 13 14 15 16 17 18 19 20 21 22 23 24 25 26 27 28 29 30 31 32 33 34 35 36 37 38 39 40 41 42 43 44 45 46 47 48 49 50

000
ASUS43 KGLD 301208
RWRGLD

GOODLAND FORECAST AREA HOURLY WEATHER ROUNDUP
NATIONAL WEATHER SERVICE GOODLAND KS
600 AM MDT SAT AUG 30 2014

...OFFICIAL OBSERVATIONS...

CITY           SKY/WX    TMP DP  RH WIND       PRES   REMARKS
GOODLAND KS    PTCLDY    55  53  93 W3        30.05S
HILL CITY KS   CLEAR     60  58  92 E5        29.99S
IMPERIAL NEB   CLEAR     57  53  86 CALM      30.03S
MCCOOK NEB     CLEAR     59  57  93 CALM      30.00S
AKRON CO       PTCLDY    56  52  86 SE7       30.07S
BURLINGTON CO  PTCLDY    53  51  93 SW6       30.07F
LIMON CO       CLEAR     60  44  55 W9G16     30.12F
$$

...UNOFFICIAL OBSERVATIONS...

CITY           SKY/WX    TMP DP  RH WIND       PRES   REMARKS
COLBY KS       CLEAR     55  55 100 CALM      30.04R
GOVE KS          N/A     56  32  40 CALM        N/A
NORTON KS      CLEAR     57  54  88 CALM      30.00
SHARON SPRINGS   N/A     56  53  90 W5          N/A
TRIBUNE KS       N/A    N/A N/A N/A MISG        N/A
WAKEENEY KS      N/A     61  50  68 MISG        N/A
KIT CARSON CO    N/A     52  47  84 CALM        N/A
YUMA CO          N/A     55  52  91 CALM        N/A
$$


USA.gov is the U.S. government's official web portal to all federal, state and local government web resources and services.